Weather History for KLCH - November, 2013

Change the Weather History Date:

Friday, November 15, 2013

  Actual Average Record
Temperature  
Mean Temperature 65 °F 61 °F  
Max Temperature 78 °F 72 °F 88 °F (1917)
Min Temperature 52 °F 51 °F 25 °F (1969)
Degree Days  
Heating Degree Days 0 5  
Month to date heating degree days 77 60  
Since 1 July heating degree days 95 96  
Cooling Degree Days 0 2  
Month to date cooling degree days 14 37  
Year to date cooling degree days 2921 2770  
Growing Degree Days 16 (Base 50)    
Moisture  
Dew Point 57 °F    
Average Humidity 75    
Maximum Humidity 100    
Minimum Humidity 50    
Precipitation  
Precipitation T in 0.15 in 3.17 in (1993)
Month to date precipitation 0.33 2.33  
Year to date precipitation 52.56 50.71  
Snow  
Snow 0.00 in 0.00 in 0.00 in ()
Month to date snowfall 0.0 0.0  
Since 1 July snowfall 0.0 0.0  
Since 1 September snowfall 0.0 0.0  
Snow Depth 0.00 in    
Sea Level Pressure  
Sea Level Pressure 30.03 in    
Wind  
Wind Speed 4 mph (East)    
Max Wind Speed 8 mph    
Max Gust Speed 13 mph    
Visibility 6 miles    
Events Fog , Rain    
T = Trace of Precipitation, MM = Missing Value Source: NWS Daily Summary

Daily Weather History Graph

Daily Weather History Graph

Search for Another Location

Airport or City:

Trip Planner

Search our weather history database for the weather conditions in past years. The results will help you decide how hot, cold, wet, or windy it might be!

Date:

Astronomy

Nov. 15, 2013 Rise Set
Actual Time 6:38 AM CST 5:16 PM CST
Civil Twilight 6:13 AM CST 5:41 PM CST
Nautical Twilight 5:44 AM CST 6:10 PM CST
Astronomical Twilight 5:15 AM CST 6:39 PM CST
Moon 4:07 PM CST (11/15) 4:42 AM CST (11/15)
Length of Visible Light 11h 28m
Length of Day
10h 37m
Waxing Gibbous, 96% of the Moon is Illuminated
Nov 15
Waxing Gibbous
Nov 17
Full
Nov 25
Last Quarter
Dec 2
New
Dec 9
First Quarter

Hourly Weather History & Observations

Time (CST) Temp. Dew Point Humidity Pressure Visibility Wind Dir Wind Speed Gust Speed Precip Events Conditions
12:53 AM 54.0 °F 46.9 °F 77% 30.12 in 10.0 mi Calm Calm - 0.00 in Rain Light Rain
1:53 AM 53.1 °F 46.9 °F 80% 30.11 in 10.0 mi NE 3.5 mph - 0.00 in   Partly Cloudy
2:53 AM 53.1 °F 48.0 °F 83% 30.10 in 10.0 mi NE 4.6 mph - N/A   Overcast
3:53 AM 54.0 °F 48.9 °F 83% 30.08 in 10.0 mi ENE 4.6 mph - N/A   Overcast
4:53 AM 54.0 °F 50.0 °F 86% 30.07 in 10.0 mi ENE 6.9 mph - N/A   Overcast
5:53 AM 55.0 °F 51.1 °F 86% 30.07 in 10.0 mi ENE 5.8 mph - N/A   Overcast
6:53 AM 54.0 °F 51.1 °F 90% 30.07 in 10.0 mi East 5.8 mph - N/A   Scattered Clouds
7:53 AM 57.0 °F 53.1 °F 87% 30.09 in 10.0 mi East 5.8 mph - N/A   Overcast
8:53 AM 57.9 °F 54.0 °F 87% 30.10 in 10.0 mi ENE 5.8 mph - N/A   Scattered Clouds
9:53 AM 63.0 °F 55.9 °F 78% 30.10 in 10.0 mi ENE 6.9 mph - N/A   Scattered Clouds
10:53 AM 68.0 °F 59.0 °F 73% 30.09 in 10.0 mi East 5.8 mph - N/A   Mostly Cloudy
11:53 AM 72.0 °F 61.0 °F 68% 30.04 in 10.0 mi ESE 5.8 mph - N/A   Clear
12:53 PM 75.9 °F 61.0 °F 60% 30.01 in 10.0 mi Variable 3.5 mph - N/A   Clear
1:53 PM 77.0 °F 57.9 °F 52% 29.99 in 10.0 mi East 5.8 mph - N/A   Mostly Cloudy
2:53 PM 77.0 °F 57.9 °F 52% 29.98 in 10.0 mi Calm Calm - N/A   Clear
3:53 PM 77.0 °F 59.0 °F 54% 29.97 in 10.0 mi ENE 4.6 mph - N/A   Mostly Cloudy
4:53 PM 73.9 °F 59.0 °F 59% 29.97 in 10.0 mi Calm Calm - N/A   Clear
5:53 PM 66.9 °F 59.0 °F 76% 29.98 in 10.0 mi SSW 3.5 mph - N/A   Clear
6:53 PM 63.0 °F 61.0 °F 93% 29.99 in 10.0 mi SSE 3.5 mph - N/A   Clear
7:53 PM 63.0 °F 62.1 °F 97% 30.00 in 7.0 mi SSE 3.5 mph - N/A   Clear
8:27 PM 62.6 °F 60.8 °F 94% 29.98 in 1.8 mi SE 3.5 mph - N/A   Clear
8:41 PM 60.8 °F 60.8 °F 100% 29.98 in 1.2 mi SE 3.5 mph - N/A   Scattered Clouds
8:44 PM 60.8 °F 60.8 °F 100% 29.98 in 0.8 mi SE 3.5 mph - N/A   Mist
8:53 PM 60.1 °F 60.1 °F 100% 30.01 in 0.2 mi SE 3.5 mph - N/A Fog Fog
9:11 PM 60.8 °F 60.8 °F 100% 29.98 in 0.2 mi SE 4.6 mph - N/A Fog Fog
9:38 PM 60.8 °F 60.8 °F 100% 29.99 in 0.2 mi SSE 3.5 mph - N/A Fog Fog
9:53 PM 62.1 °F 62.1 °F 100% 30.01 in 0.2 mi Calm Calm - N/A Fog Fog
10:01 PM 62.6 °F 62.6 °F 100% 29.99 in 0.2 mi Calm Calm - N/A Fog Fog
10:35 PM 62.6 °F 62.6 °F 100% 30.00 in 0.5 mi Calm Calm - N/A Fog Fog
10:53 PM 62.1 °F 61.0 °F 96% 30.03 in 0.8 mi Calm Calm - N/A   Overcast
11:03 PM 62.6 °F 60.8 °F 94% 30.00 in 0.8 mi Calm Calm - N/A   Overcast
11:20 PM 60.8 °F 60.8 °F 100% 30.00 in 0.5 mi Calm Calm - N/A Fog Fog
11:50 PM 62.6 °F 62.6 °F 100% 29.99 in 0.2 mi Calm Calm - N/A Fog Fog
11:53 PM 63.0 °F 62.1 °F 97% 30.02 in 0.5 mi ESE 3.5 mph - N/A Fog Fog